Location: Copper Breaks State Park
(34.1132°N, 99.7492°W)
Time: 09:10:38
(UTC-05:00)

Amateur Radio Satellites - All Passes

Search period start: 27 May 2016 08:40
Search period end: 28 May 2016 08:40
Location: Copper Breaks State Park, 34.1132°N, 99.7492°W

Satellite Date Start Highest point End Downlink Frequencies (MHz)
Time Altitude Azimuth
BRITE-PL 27 May 08:49:56 08:53:55 24° 292° (WNW) 08:57:39 437.365/2234.400
CUTE-I 27 May 08:53:39 08:58:16 30° 291° (WNW) 09:02:52 437.470
CINEMA 3 27 May 09:04:51 09:08:22 26° 96° (E) 09:11:52 145.822/145.860
CANX-2 27 May 09:11:13 09:15:11 36° 98° (E) 09:19:08 2200.000
O/OREOS (USA 219) 27 May 09:11:30 09:12:13 10° 98° (E) 09:12:55 437.305
JUGNU 27 May 09:12:58 09:17:16 20° 181° (S) 09:21:31 437.505
PRISM 27 May 09:13:13 09:17:19 72° 77° (ENE) 09:21:29 437.425
SEEDS 27 May 09:15:18 09:18:47 24° 96° (E) 09:22:16 437.485
GOMX 1 27 May 09:17:12 09:20:54 24° 291° (WNW) 09:24:25 467.674
SRMSAT 27 May 09:17:58 09:21:20 15° 169° (S) 09:24:41 437.500
CUTE 1.7 + AOD 2 27 May 09:38:19 09:42:36 69° 101° (E) 09:46:52 437.475
AUBIESAT-1 27 May 09:41:49 09:45:06 69° 105° (ESE) 09:48:26 437.475
Oscar 11 27 May 09:43:45 09:44:09 10° 92° (E) 09:44:34 145.826/435.025
M-CUBED/EXP-1 PRIME 27 May 09:48:09 09:51:24 69° 288° (WNW) 09:54:39 437.505
ZACube-1 27 May 09:55:30 09:57:23 13° 93° (E) 09:59:16 437.345
CUBEBUG 2 27 May 09:57:18 10:01:03 32° 98° (E) 10:04:50 437.445
COMPASS 1 27 May 10:01:42 10:05:55 64° 101° (E) 10:10:05 437.405
GONETS M04 27 May 10:03:00 10:11:39 66° 81° (E) 10:20:15
AAUSAT CUBESAT 2 27 May 10:04:45 10:08:52 54° 100° (E) 10:12:58 437.432
AIST 1 27 May 10:05:33 10:09:32 37° 269° (W) 10:13:30
UNISAT 6 27 May 10:07:30 10:09:10 12° 67° (ENE) 10:10:50 437.425
DOVE 4 27 May 10:09:33 10:11:42 14° 294° (WNW) 10:13:48 437.250
TIGRISAT 27 May 10:14:37 10:16:50 14° 67° (ENE) 10:19:02 435.000
Cosmos 2499 27 May 10:15:42 10:24:03 50° 79° (E) 10:32:35 435.465 / 435.565
HO-68 27 May 10:19:15 10:26:20 65° 289° (WNW) 10:33:24 435.675
UWE-3 27 May 10:26:35 10:30:38 49° 100° (E) 10:34:46 435.000/436.395/437.385
PCSat 27 May 10:28:02 10:33:24 69° 113° (ESE) 10:38:48 145.827
SO-50 27 May 10:32:06 10:36:42 57° 59° (ENE) 10:41:07 436.795
FUNcube-1 27 May 10:32:07 10:35:57 34° 98° (E) 10:39:50 145.935
DELFI C3 27 May 10:39:05 10:42:13 21° 96° (E) 10:45:20 145.870
CINEMA 3 27 May 10:42:23 10:45:20 19° 290° (WNW) 10:48:16 145.822/145.860
ANTELSAT 27 May 10:46:11 10:50:08 34° 73° (ENE) 10:54:02 437.575/2403.000
O/OREOS (USA 219) 27 May 10:46:33 10:51:02 57° 291° (WNW) 10:55:32 437.305
CANX-2 27 May 10:48:07 10:50:42 16° 292° (WNW) 10:53:17 2200.000
SEEDS 27 May 10:51:02 10:54:20 22° 290° (WNW) 10:57:38 437.485
JUGNU 27 May 11:02:06 11:05:36 16° 191° (S) 11:09:04 437.505
SRMSAT 27 May 11:05:36 11:09:48 20° 179° (S) 11:14:01 437.500
Oscar 11 27 May 11:16:19 11:20:33 54° 285° (WNW) 11:24:47 145.826/435.025
CUSAT 1 27 May 11:27:16 11:31:01 17° 80° (E) 11:35:11 437.405
ZACube-1 27 May 11:29:51 11:33:48 41° 286° (WNW) 11:37:48 437.345
POPSAT HIP 1 27 May 11:31:19 11:34:13 18° 69° (ENE) 11:37:07 437.405
QB50P1 27 May 11:31:41 11:34:38 19° 69° (ENE) 11:37:37 145.935-145.965
QB50P2 27 May 11:33:37 11:36:47 21° 70° (ENE) 11:39:58 145.880/145.840
CUBEBUG 2 27 May 11:34:47 11:37:24 17° 291° (WNW) 11:40:05 437.445
POLYITAN 1 27 May 11:36:02 11:39:15 21° 70° (ENE) 11:42:28 437.675
HUMSAT D 27 May 11:41:10 11:45:16 54° 100° (E) 11:49:23 437.325/437.525
UNISAT 6 27 May 11:41:11 11:45:27 50° 260° (W) 11:49:40 437.425
AAUSAT CUBESAT 2 27 May 11:43:06 11:43:50 10° 294° (WNW) 11:44:34 437.432
TIGRISAT 27 May 11:48:58 11:53:09 43° 261° (W) 11:57:16 435.000
NANOSAT C BR1 27 May 11:49:33 11:53:11 29° 72° (ENE) 11:56:49 145.865
GONETS M04 27 May 12:01:32 12:07:36 22° 278° (W) 12:13:41
BEESAT 2 27 May 12:03:38 12:07:01 27° 112° (ESE) 12:10:25 435.950
UWE-3 27 May 12:05:23 12:06:40 11° 293° (WNW) 12:07:56 435.000/436.395/437.385
FUNcube-1 27 May 12:09:20 12:11:55 16° 291° (WNW) 12:14:31 145.935
Cosmos 2499 27 May 12:09:25 12:16:46 32° 274° (W) 12:24:17 435.465 / 435.565
DELFI C3 27 May 12:13:47 12:16:58 23° 289° (WNW) 12:20:08 145.870
PCSat 27 May 12:14:06 12:17:17 16° 310° (NW) 12:20:29 145.827
SO-50 27 May 12:14:54 12:16:34 12° 254° (WSW) 12:18:14 436.795
AISAT 27 May 12:16:32 12:19:03 15° 94° (E) 12:21:33 437.250
ANTELSAT 27 May 12:24:07 12:26:54 16° 265° (W) 12:29:39 437.575/2403.000
UKube-1 27 May 12:27:11 12:28:42 12° 93° (E) 12:30:13 .
DUCHIFAT 1 27 May 12:27:38 12:31:51 81° 78° (ENE) 12:36:05 145.980
BEESAT 3 27 May 12:38:30 12:42:21 54° 301° (WNW) 12:46:14 437.485
BUGSAT 1 27 May 12:47:10 12:51:19 61° 76° (ENE) 12:55:27 437.445
ESTCUBE 1 27 May 12:51:49 12:56:20 60° 101° (E) 13:00:48 437.505/2401.250
SRMSAT 27 May 12:54:36 12:58:18 17° 189° (S) 13:02:00 437.500
50 SAT 27 May 12:56:22 13:00:00 50° 100° (E) 13:03:37 437.505
DANDE 27 May 12:58:18 13:03:06 44° 89° (E) 13:09:22 436.750
Oscar 19 27 May 13:00:46 13:03:03 13° 64° (ENE) 13:05:19 437.125/150
CUSAT 1 27 May 13:06:00 13:11:56 70° 281° (W) 13:19:24 437.405
POPSAT HIP 1 27 May 13:06:01 13:09:45 30° 262° (W) 13:13:30 437.405
QB50P1 27 May 13:06:29 13:10:11 29° 263° (W) 13:13:54 145.935-145.965
QB50P2 27 May 13:08:51 13:12:25 26° 263° (W) 13:15:59 145.880/145.840
CUBEBUG 1 27 May 13:09:06 13:13:27 64° 101° (E) 13:17:44 437.445
DX 1 27 May 13:10:58 13:15:13 52° 101° (E) 13:19:26 434.975-435.025
POLYITAN 1 27 May 13:11:21 13:14:53 25° 263° (W) 13:18:25 437.675
VELOX 1 27 May 13:15:13 13:19:38 73° 101° (ESE) 13:24:01 145.980
HUMSAT D 27 May 13:19:54 13:20:24 10° 294° (WNW) 13:20:53 437.325/437.525
JAS-2 27 May 13:20:03 13:27:01 54° 71° (ENE) 13:34:33 435.910
NANOSAT C BR1 27 May 13:25:55 13:28:54 19° 265° (W) 13:31:53 145.865
SPROUT 27 May 13:37:28 13:41:36 49° 99° (E) 13:45:43 437.525
BEESAT 2 27 May 13:41:50 13:44:50 20° 307° (NW) 13:47:51 435.950
AISAT 27 May 13:51:33 13:55:39 38° 288° (WNW) 13:59:43 437.250
UKube-1 27 May 14:00:48 14:04:58 47° 286° (WNW) 14:09:05 .
TISAT 1 27 May 14:03:11 14:06:33 23° 96° (E) 14:09:53 437.305
AIST 2 27 May 14:10:21 14:14:13 41° 114° (ESE) 14:18:07 435.215
ESTCUBE 1 27 May 14:31:15 14:32:34 11° 295° (WNW) 14:33:52 437.505/2401.250
Oscar 19 27 May 14:36:35 14:41:44 67° 258° (WSW) 14:46:56 437.125/150
SWISSCUBE 27 May 14:39:42 14:41:27 12° 92° (E) 14:43:13 437.505
DANDE 27 May 14:42:14 14:46:23 22° 294° (WNW) 14:51:25 436.750
ITUPSAT 1 27 May 14:45:37 14:47:30 12° 93° (E) 14:49:23 437.325
DX 1 27 May 14:49:23 14:50:54 12° 295° (WNW) 14:52:25 434.975-435.025
Gurwin Techsat 1B 27 May 14:57:25 15:02:43 78° 76° (ENE) 15:08:02 435.225
JAS-2 27 May 15:06:26 15:12:16 27° 268° (W) 15:18:33 435.910
BEESAT 27 May 15:07:40 15:11:26 23° 96° (E) 15:15:11 436.000
SPROUT 27 May 15:15:34 15:17:05 12° 294° (WNW) 15:18:36 437.525
ITAMSAT 1 27 May 15:17:57 15:22:50 45° 72° (ENE) 15:27:45 435.822/435.867
Cosmos 2491 27 May 15:18:09 15:25:25 28° 73° (ENE) 15:32:37 435.465 / 435.565
AO-7 27 May 15:35:51 15:43:16 38° 63° (ENE) 15:50:41 29.400- 29.500
TISAT 1 27 May 15:38:50 15:42:04 22° 290° (WNW) 15:45:17 437.305
AIST 2 27 May 15:50:20 15:52:53 16° 310° (NW) 15:55:26 435.215
AO-85 27 May 15:58:33 16:02:56 44° 56° (ENE) 16:06:56 145.980
SWISSCUBE 27 May 16:14:50 16:19:32 57° 286° (WNW) 16:24:13 437.505
ITUPSAT 1 27 May 16:20:54 16:25:36 56° 286° (WNW) 16:30:18 437.325
MOZHAYETS 4 27 May 16:22:04 16:23:35 11° 92° (E) 16:25:07
HORYU 2 27 May 16:29:16 16:30:54 12° 65° (ENE) 16:32:32 437.375
RS-15 27 May 16:40:34 16:49:06 26° 102° (ESE) 16:57:55 29.354- 29.394
STARS 27 May 16:43:37 16:45:30 13° 93° (E) 16:47:23 437.465
BEESAT 27 May 16:45:00 16:49:10 30° 290° (WNW) 16:53:20 436.000
ITAMSAT 1 27 May 16:59:06 17:02:29 17° 266° (W) 17:05:51 435.822/435.867
YUBILEINY 27 May 17:08:39 17:17:17 73° 93° (E) 17:25:56 435.215
Cosmos 2491 27 May 17:14:09 17:22:33 53° 270° (W) 17:30:53 435.465 / 435.565
AO-7 27 May 17:28:07 17:35:50 43° 259° (W) 17:43:37 29.400- 29.500
AO-85 27 May 17:40:42 17:42:50 13° 254° (WSW) 17:44:52 145.980
KKS-1 27 May 17:41:50 17:46:12 58° 285° (WNW) 17:50:32 437.445
NOAA 15 27 May 17:42:57 17:46:07 16° 65° (ENE) 17:49:18 137.62
NOAA 18 27 May 17:45:25 17:48:24 15° 63° (ENE) 17:51:23 137.9125
CUBESAT XI-V 27 May 17:48:05 17:48:35 10° 91° (E) 17:49:05 437.345
Cubesat XI-IV 27 May 17:48:57 17:50:46 12° 62° (ENE) 17:52:37 437.490
MOZHAYETS 4 27 May 17:56:30 18:01:01 55° 285° (WNW) 18:05:33
HORYU 2 27 May 18:02:39 18:06:57 53° 259° (W) 18:11:18 437.375
Cosmos 2504 27 May 18:14:11 18:21:02 50° 90° (E) 18:28:11 435.465 / 435.565
BRITE-PL 27 May 18:17:11 18:21:52 28° 69° (ENE) 18:26:37 437.365/2234.400
STARS 27 May 18:17:53 18:22:03 44° 287° (WNW) 18:26:11 437.465
CUTE-I 27 May 18:31:58 18:36:38 33° 70° (ENE) 18:41:19 437.470
GOMX 1 27 May 18:42:43 18:46:56 23° 69° (ENE) 18:51:06 467.674
RS-15 27 May 18:49:00 19:00:14 74° 301° (WNW) 19:12:10 29.354- 29.394
YUBILEINY 27 May 19:08:53 19:14:50 20° 291° (WNW) 19:20:50 435.215
LilacSat-2 27 May 19:11:44 19:15:32 77° 77° (ENE) 19:19:20 437.200
NOAA 15 27 May 19:20:12 19:25:23 55° 259° (W) 19:30:36 137.62
PCSat 27 May 19:20:13 19:24:42 26° 55° (NE) 19:29:09 145.827
CUBESAT XI-V 27 May 19:21:39 19:26:19 63° 285° (WNW) 19:30:56 437.345
NOAA 18 27 May 19:23:05 19:28:29 63° 258° (WSW) 19:33:53 137.9125
O/OREOS (USA 219) 27 May 19:23:15 19:24:58 12° 58° (ENE) 19:26:40 437.305
Cubesat XI-IV 27 May 19:24:51 19:30:08 76° 257° (WSW) 19:35:28 437.490
DOVE 4 27 May 19:31:12 19:35:49 32° 72° (ENE) 19:40:18 437.250
BRITE-PL 27 May 19:55:01 20:00:06 36° 264° (W) 20:05:18 437.365/2234.400
CANX-2 27 May 20:01:28 20:04:06 16° 69° (ENE) 20:06:45 2200.000
CINEMA 3 27 May 20:03:09 20:06:27 19° 69° (ENE) 20:09:39 145.822/145.860
SEEDS 27 May 20:05:48 20:06:52 11° 66° (ENE) 20:07:55 437.485
Cosmos 2504 27 May 20:09:07 20:14:43 24° 288° (WNW) 20:20:33 435.465 / 435.565
CUTE-I 27 May 20:12:17 20:16:38 26° 264° (W) 20:21:01 437.470
GOMX 1 27 May 20:19:33 20:24:40 41° 262° (W) 20:29:47 467.674
AUBIESAT-1 27 May 20:24:00 20:28:03 48° 70° (ENE) 20:31:50 437.475
CUTE 1.7 + AOD 2 27 May 20:27:35 20:31:12 29° 72° (ENE) 20:34:50 437.475
M-CUBED/EXP-1 PRIME 27 May 20:30:28 20:34:46 75° 72° (ENE) 20:38:45 437.505
STRAND 1 27 May 20:40:24 20:45:29 59° 101° (E) 20:50:33 437.568
HO-68 27 May 20:43:08 20:50:10 66° 71° (ENE) 20:57:15 435.675
COMPASS 1 27 May 20:49:12 20:52:37 25° 71° (ENE) 20:56:03 437.405
AAUSAT CUBESAT 2 27 May 20:51:57 20:55:06 22° 70° (ENE) 20:58:17 437.432
CUBEBUG 2 27 May 20:52:33 20:55:34 18° 70° (ENE) 20:58:31 437.445
BEESAT 3 27 May 20:59:35 21:02:52 24° 54° (NE) 21:06:08 437.485
O/OREOS (USA 219) 27 May 21:00:20 21:04:43 55° 254° (WSW) 21:09:03 437.305
PRISM 27 May 21:00:20 21:02:17 13° 94° (E) 21:04:12 437.425
PCSat 27 May 21:03:10 21:08:08 38° 251° (WSW) 21:13:05 145.827
RS-15 27 May 21:06:47 21:15:13 22° 327° (NNW) 21:23:59 29.354- 29.394
GONETS M04 27 May 21:08:29 21:12:05 13° 78° (ENE) 21:15:40
ISS 27 May 21:09:04 21:11:48 25° 130° (SE) 21:14:33 145.825
DOVE 4 27 May 21:09:05 21:13:25 26° 264° (W) 21:17:40 437.250
UWE-3 27 May 21:20:20 21:23:54 25° 72° (ENE) 21:27:23 435.000/436.395/437.385
FUNcube-1 27 May 21:25:03 21:27:49 17° 69° (ENE) 21:30:34 145.935
CANX-2 27 May 21:35:53 21:39:40 33° 263° (W) 21:43:29 2200.000
SEEDS 27 May 21:38:01 21:42:04 51° 260° (W) 21:46:09 437.485
CINEMA 3 27 May 21:38:53 21:43:18 36° 261° (W) 21:47:35 145.822/145.860
AUBIESAT-1 27 May 22:01:33 22:02:36 11° 261° (W) 22:03:39 437.475
BEESAT 2 27 May 22:02:05 22:06:04 72° 61° (ENE) 22:10:01 435.950
CUTE 1.7 + AOD 2 27 May 22:04:08 22:07:02 18° 266° (W) 22:09:56 437.475
Oscar 11 27 May 22:06:54 22:11:09 69° 76° (ENE) 22:15:27 145.826/435.025
CUSAT 1 27 May 22:07:36 22:09:42 11° 60° (ENE) 22:11:43 437.405
STRAND 1 27 May 22:21:24 22:24:07 14° 296° (WNW) 22:26:49 437.568
ZACube-1 27 May 22:21:27 22:25:44 89° 271° (W) 22:29:56 437.345
COMPASS 1 27 May 22:25:04 22:28:06 20° 265° (W) 22:31:11 437.405
AAUSAT CUBESAT 2 27 May 22:27:09 22:30:27 23° 264° (W) 22:33:47 437.432
CUBEBUG 2 27 May 22:28:00 22:31:57 31° 262° (W) 22:35:49 437.445
PHONESAT 2.4 27 May 22:29:15 22:32:21 59° 152° (SSE) 22:35:26 2401.200-2431.200
HUMSAT D 27 May 22:29:27 22:32:39 22° 71° (ENE) 22:35:51 437.325/437.525
AIST 1 27 May 22:30:16 22:34:34 53° 279° (W) 22:38:53
HO-68 27 May 22:33:30 22:38:18 19° 266° (W) 22:43:08 435.675
PRISM 27 May 22:33:49 22:37:43 39° 287° (WNW) 22:41:36 437.425
BEESAT 3 27 May 22:37:22 22:40:25 22° 249° (WSW) 22:43:27 437.485
AIST 2 27 May 22:37:25 22:38:21 11° 47° (NE) 22:39:17 435.215
ISS 27 May 22:45:27 22:48:11 24° 325° (NW) 22:50:57 145.825
Cosmos 2499 27 May 22:48:35 22:55:08 39° 88° (E) 23:02:03 435.465 / 435.565
DELFI C3 27 May 22:55:01 22:58:55 65° 259° (WSW) 23:02:53 145.870
UWE-3 27 May 22:56:57 23:00:17 21° 264° (W) 23:03:34 435.000/436.395/437.385
GONETS M04 27 May 22:58:41 23:07:31 85° 94° (E) 23:16:18
FUNcube-1 27 May 23:00:01 23:03:49 31° 263° (W) 23:07:33 145.935
RS-15 27 May 23:30:22 23:34:47 12° 5° (N) 23:39:15 29.354- 29.394
50 SAT 27 May 23:32:41 23:34:27 13° 69° (ENE) 23:36:15 437.505
UNISAT 6 27 May 23:36:21 23:40:26 41° 99° (E) 23:44:35 437.425
DANDE 27 May 23:40:50 23:48:31 38° 73° (ENE) 23:55:22 436.750
TIGRISAT 27 May 23:43:46 23:47:56 48° 100° (E) 23:52:09 435.000
CUSAT 1 27 May 23:45:47 23:53:24 75° 80° (E) 23:59:31 437.405
ESTCUBE 1 27 May 23:47:43 23:51:47 34° 72° (ENE) 23:55:53 437.505/2401.250
CUBEBUG 1 28 May 00:01:21 00:05:19 33° 72° (ENE) 00:09:18 437.445
DX 1 28 May 00:03:00 00:06:45 28° 71° (ENE) 00:10:30 434.975-435.025
HUMSAT D 28 May 00:05:00 00:08:10 22° 264° (W) 00:11:21 437.325/437.525
PHONESAT 2.4 28 May 00:06:21 00:09:13 32° 347° (NNW) 00:12:05 2401.200-2431.200
VELOX 1 28 May 00:08:43 00:12:53 39° 73° (ENE) 00:17:03 145.980
AIST 2 28 May 00:13:08 00:17:16 70° 244° (WSW) 00:21:22 435.215
DUCHIFAT 1 28 May 00:16:42 00:19:22 16° 95° (E) 00:22:02 145.980
ANTELSAT 28 May 00:17:26 00:21:42 61° 285° (WNW) 00:26:01 437.575/2403.000
SPROUT 28 May 00:27:49 00:31:15 24° 71° (ENE) 00:34:41 437.525
BUGSAT 1 28 May 00:35:19 00:36:21 11° 93° (E) 00:37:24 437.445
Cosmos 2499 28 May 00:42:00 00:48:15 31° 286° (WNW) 00:54:52 435.465 / 435.565
SO-50 28 May 00:42:11 00:46:51 46° 114° (ESE) 00:51:32 436.795
AISAT 28 May 00:44:30 00:48:57 72° 258° (WSW) 00:53:26 437.250
UKube-1 28 May 00:51:05 00:55:25 86° 73° (ENE) 00:59:46 .
TISAT 1 28 May 00:53:08 00:54:37 12° 66° (ENE) 00:56:07 437.305
POPSAT HIP 1 28 May 00:53:56 00:58:03 54° 100° (E) 01:02:09 437.405
QB50P1 28 May 00:54:18 00:58:26 56° 100° (E) 01:02:32 145.935-145.965
QB50P2 28 May 00:56:40 01:00:50 64° 100° (E) 01:05:00 145.880/145.840
POLYITAN 1 28 May 00:59:07 01:03:18 66° 101° (ESE) 01:07:27 437.675
GONETS M04 28 May 01:00:10 01:05:20 17° 293° (WNW) 01:10:32
50 SAT 28 May 01:04:42 01:07:53 29° 262° (W) 01:11:07 437.505
NANOSAT C BR1 28 May 01:12:32 01:16:44 89° 268° (W) 01:20:54 145.865
UNISAT 6 28 May 01:14:31 01:16:47 14° 292° (WNW) 01:19:05 437.425
TIGRISAT 28 May 01:22:25 01:24:11 12° 293° (WNW) 01:25:58 435.000
DANDE 28 May 01:23:40 01:31:20 41° 272° (W) 01:38:05 436.750
ESTCUBE 1 28 May 01:25:37 01:28:39 18° 266° (W) 01:31:42 437.505/2401.250
CUSAT 1 28 May 01:30:12 01:34:15 16° 281° (W) 01:37:57 437.405
CUBEBUG 1 28 May 01:38:36 01:41:37 18° 265° (W) 01:44:39 437.445
DX 1 28 May 01:39:37 01:42:53 21° 264° (W) 01:46:11 434.975-435.025
RS-15 28 May 01:43:33 01:53:41 28° 40° (NE) 02:03:45 29.354- 29.394
PHONESAT 2.4 28 May 01:43:48 01:46:27 24° 4° (N) 01:49:06 2401.200-2431.200
VELOX 1 28 May 01:46:52 01:49:27 15° 266° (W) 01:52:03 145.980
DUCHIFAT 1 28 May 01:51:24 01:55:06 31° 288° (WNW) 01:58:46 145.980
SPROUT 28 May 02:03:37 02:07:04 23° 264° (W) 02:10:33 437.525
BUGSAT 1 28 May 02:08:06 02:11:55 42° 286° (WNW) 02:15:43 437.445
BEESAT 28 May 02:11:09 02:14:18 18° 67° (ENE) 02:17:28 436.000
JAS-2 28 May 02:19:29 02:26:47 66° 101° (E) 02:33:11 435.910
SO-50 28 May 02:23:55 02:27:31 20° 310° (NW) 02:31:09 436.795
TISAT 1 28 May 02:25:43 02:29:49 49° 260° (W) 02:33:55 437.305
POPSAT HIP 1 28 May 02:32:37 02:33:19 10° 294° (WNW) 02:34:01 437.405
QB50P1 28 May 02:33:25 02:33:40 10° 294° (WNW) 02:33:56 145.935-145.965
Oscar 19 28 May 02:51:59 02:57:04 59° 101° (E) 03:02:06 437.125/150
SWISSCUBE 28 May 03:17:16 03:22:00 77° 259° (WSW) 03:26:46 437.505
Gurwin Techsat 1B 28 May 03:17:39 03:22:40 42° 99° (E) 03:27:40 435.225
PHONESAT 2.4 28 May 03:20:28 03:23:34 56° 21° (NNE) 03:26:38 2401.200-2431.200
ITUPSAT 1 28 May 03:23:37 03:28:22 75° 258° (WSW) 03:33:08 437.325
YUBILEINY 28 May 03:24:09 03:31:34 30° 73° (ENE) 03:38:58 435.215
ITAMSAT 1 28 May 03:35:10 03:39:10 22° 95° (E) 03:43:09 435.822/435.867
AO-7 28 May 03:44:24 03:47:48 13° 92° (E) 03:51:12 29.400- 29.500
BEESAT 28 May 03:47:19 03:51:44 39° 261° (W) 03:56:12 436.000
RS-15 28 May 03:55:28 04:07:53 89° 244° (WSW) 04:20:07 29.354- 29.394
JAS-2 28 May 04:05:50 04:10:57 21° 299° (WNW) 04:15:43 435.910
Cosmos 2504 28 May 04:11:50 04:16:38 16° 68° (ENE) 04:21:30 435.465 / 435.565
Cosmos 2491 28 May 04:14:18 04:22:09 37° 87° (E) 04:29:59 435.465 / 435.565
Oscar 19 28 May 04:33:09 04:35:50 14° 296° (WNW) 04:38:30 437.125/150
KKS-1 28 May 04:35:42 04:40:10 78° 76° (ENE) 04:44:39 437.445
MOZHAYETS 4 28 May 04:54:14 04:58:46 88° 87° (E) 05:03:21
PHONESAT 2.4 28 May 04:57:37 05:00:08 22° 215° (SW) 05:02:38 2401.200-2431.200
Gurwin Techsat 1B 28 May 04:58:25 05:02:17 21° 293° (WNW) 05:06:09 435.225
STARS 28 May 05:10:13 05:14:38 85° 255° (WSW) 05:19:04 437.465
ITAMSAT 1 28 May 05:13:54 05:18:40 37° 289° (WNW) 05:23:26 435.822/435.867
ISS 28 May 05:15:25 05:18:39 64° 42° (NE) 05:21:52 145.825
YUBILEINY 28 May 05:20:14 05:28:35 52° 270° (W) 05:36:58 435.215
AO-7 28 May 05:33:05 05:41:29 83° 106° (ESE) 05:49:53 29.400- 29.500
HORYU 2 28 May 05:57:17 06:01:24 37° 99° (E) 06:05:30 437.375
Cosmos 2504 28 May 06:02:22 06:10:57 89° 84° (E) 06:19:52 435.465 / 435.565
AO-85 28 May 06:07:50 06:12:55 41° 113° (ESE) 06:17:59 145.980
Cosmos 2491 28 May 06:10:36 06:18:46 41° 283° (WNW) 06:27:00 435.465 / 435.565
RS-15 28 May 06:10:54 06:18:38 20° 261° (W) 06:26:21 29.354- 29.394
CUBESAT XI-V 28 May 06:20:44 06:25:23 81° 77° (ENE) 06:30:06 437.345
LilacSat-2 28 May 06:51:26 06:52:10 10° 93° (E) 06:52:55 437.200
CUTE-I 28 May 06:53:30 06:57:01 18° 94° (E) 07:00:31 437.470
JUGNU 28 May 07:09:57 07:13:47 18° 172° (S) 07:17:38 437.505
AO-7 28 May 07:27:45 07:33:15 20° 304° (NW) 07:38:47 29.400- 29.500
HORYU 2 28 May 07:34:49 07:37:37 17° 293° (WNW) 07:40:26 437.375
NOAA 15 28 May 07:39:03 07:44:21 77° 103° (ESE) 07:49:37 137.62
Cubesat XI-IV 28 May 07:45:52 07:51:10 60° 101° (ESE) 07:56:28 437.490
NOAA 18 28 May 07:48:47 07:54:17 77° 104° (ESE) 07:59:47 137.9125
AO-85 28 May 07:49:02 07:53:33 26° 308° (NW) 07:58:00 145.980
STRAND 1 28 May 07:52:31 07:57:29 57° 74° (ENE) 08:02:29 437.568
Cosmos 2504 28 May 07:58:44 08:03:13 15° 280° (W) 08:07:47 435.465 / 435.565
BRITE-PL 28 May 08:04:05 08:09:05 70° 284° (WNW) 08:13:39 437.365/2234.400
HO-68 28 May 08:17:45 08:21:07 14° 92° (E) 08:24:27 435.675
LilacSat-2 28 May 08:23:05 08:26:37 38° 286° (WNW) 08:30:09 437.200
GOMX 1 28 May 08:25:43 08:30:20 89° 109° (ESE) 08:34:38 467.674
